This is the latest recevied weather packets stored in our database for station/object N7CEE-2. If no packets are shown the sender has not sent any weather packets the latest 10 day(s).
| Time | Temp. | Humidity | Pressure | Rain* | Wind** | Luminosity | Snow |
|---|---|---|---|---|---|---|---|
| 1777312252 | 22.78° C | 25% | 1016.8 hPa | 0 mm | - | 874 W/m² | - |
| 1777311949 | 22.78° C | 25% | 1016.6 hPa | 0 mm | - | 862 W/m² | - |
| 1777311646 | 22.22° C | 26% | 1016.8 hPa | 0 mm | - | 859 W/m² | - |
| 1777311344 | 22.22° C | 25% | 1016.9 hPa | 0 mm | - | 846 W/m² | - |
| 1777311041 | 22.22° C | 26% | 1016.5 hPa | 0 mm | - | 832 W/m² | - |
| 1777310739 | 22.22° C | 25% | 1016.6 hPa | 0 mm | - | 819 W/m² | - |
| 1777310436 | 22.22° C | 26% | 1016.8 hPa | 0 mm | - | 807 W/m² | - |
| 1777310133 | 22.22° C | 27% | 1016.6 hPa | 0 mm | - | 791 W/m² | - |
| 1777309831 | 21.11° C | 26% | 1016.8 hPa | 0 mm | - | 776 W/m² | - |
| 1777309528 | 21.67° C | 26% | 1016.8 hPa | 0 mm | - | 762 W/m² | - |
| 1777309225 | 21.67° C | 28% | 1016.8 hPa | 0 mm | - | 751 W/m² | - |
| 1777308924 | 21.67° C | 27% | 1016.5 hPa | 0 mm | - | 735 W/m² | - |
| 1777308619 | 21.67° C | 27% | 1016.6 hPa | 0 mm | - | 718 W/m² | - |
| 1777308315 | 21.11° C | 29% | 1016.6 hPa | 0 mm | - | 703 W/m² | - |
| 1777308010 | 21.11° C | 28% | 1016.5 hPa | 0 mm | - | 688 W/m² | - |
| 1777307709 | 21.67° C | 28% | 1016.6 hPa | 0 mm | - | 672 W/m² | - |
| 1777307404 | 20.56° C | 28% | 1016.4 hPa | 0 mm | - | 656 W/m² | - |
| 1777307102 | 21.11° C | 29% | 1016.6 hPa | 0 mm | - | 636 W/m² | - |
| 1777306799 | 20.56° C | 30% | 1016.5 hPa | 0 mm | - | 621 W/m² | - |
| 1777306496 | 20° C | 30% | 1016.3 hPa | 0 mm | - | 602 W/m² | - |
| 1777306192 | 20° C | 31% | 1016.3 hPa | 0 mm | - | 582 W/m² | - |
| 1777305887 | 20° C | 31% | 1016.5 hPa | 0 mm | - | 563 W/m² | - |
| 1777305583 | 20.56° C | 31% | 1016.3 hPa | 0 mm | - | 551 W/m² | - |
| 1777305280 | 20° C | 31% | 1016.4 hPa | 0 mm | - | 526 W/m² | - |
| 1777304978 | 20° C | 32% | 1016.4 hPa | 0 mm | - | 507 W/m² | - |
* Rain latest hour (hover to see other rain measurements)
** Current wind speed in m/s (hover to see current wind gust speed)